Regional Weather Roundup
Issued by NWS

Home | Current Version | Previous Version | Graphics & Text | Print | Product List | Glossary On
Versions: 1 2 3 4 5 6 7 8 9 10 11 12 13 14 15 16 17 18 19 20 21 22 23 24 25 26 27 28 29 30 31 32 33 34 35 36 37 38 39 40 41 42 43 44 45 46 47 48 49 50
000
ASUS45 KSLC 171710
RWRUT

UTAH REGIONAL WEATHER ROUNDUP
NATIONAL WEATHER SERVICE SALT LAKE CITY UT
1100 AM MDT WED SEP 17 2014

UTZ001>011-023>025-171800-

NORTHERN UTAH

CITY           SKY/WX    TMP DP  RH WIND       PRES   REMARKS
HILL AFB       SUNNY     78  45  31 E10       30.04R
LOGAN          SUNNY     68  47  46 S7        30.03F
OGDEN          SUNNY     81  42  25 CALM      30.01R
PROVO AIRPORT  SUNNY     79  48  34 E6        30.05F
SALT LAKE CITY MOSUNNY   83  44  25 SE12      29.98S
VERNAL         SUNNY     70  45  40 E3        30.14S
WENDOVER       SUNNY     77  39  25 E7        29.99S
HEBER CITY     SUNNY     66  45  45 CALM      30.13S
WEST JORDAN    SUNNY     82  43  24 S14       30.03R

$$

UTZ012>022-026-027-171800-

SOUTHERN UTAH

CITY           SKY/WX    TMP DP  RH WIND       PRES   REMARKS
BRYCE CANYON   SUNNY     67  47  48 SE8       30.28S
CEDAR CITY     SUNNY     76  50  40 CALM      30.11F
MILFORD        SUNNY     79  53  40 S13       30.06S
MOAB/CYNLANDS  SUNNY     79  44  28 SE8       30.07R
PRICE          SUNNY     76  37  24 SE7       30.16S
ST GEORGE      SUNNY     82  54  36 N6        29.97S
KANAB            N/A     79  52  38 NW5       30.12F

$$

REGIONAL REPORTS     COLORADO/ARIZONA

CITY           SKY/WX    TMP DP  RH WIND       PRES   REMARKS
CRAIG, CO      SUNNY     73  42  32 NE9       30.19F
GRAND JUNCTION MOSUNNY   71  40  32 S9        30.11F
RIFLE          SUNNY     68  42  38 VRB3      30.17F
MONTROSE       MOSUNNY   72  44  36 VRB3      30.18F
CORTEZ         SUNNY     68  51  54 SW3       30.20S
PAGE, AZ       MOSUNNY   80  54  40 VRB3      30.08S
GRAND CANYON   MOSUNNY   70  52  52 E7        30.21S
KINGMAN        SUNNY     81  58  45 E9        30.00S
FLAGSTAFF      CLOUDY    59  56  89 E7        30.24S

$$

REGIONAL REPORTS    NEVADA/IDAHO/WYOMING

CITY           SKY/WX    TMP DP  RH WIND       PRES   REMARKS
LAS VEGAS, NV  MOSUNNY   86  60  41 SE6       29.87S
ELY            SUNNY     75  46  35 VRB5      30.14F
ELKO           MOSUNNY   72  35  25 CALM      30.04F
POCATELLO, ID  MOSUNNY   78  48  34 E6        29.99F
BURLEY         MOSUNNY   74  49  41 E6        29.94F
EVANSTON, WY   SUNNY     73  40  30 SW8       30.21S
ROCK SPRINGS   PTSUNNY   67  36  31 N12       30.22R

$$



USA.gov is the U.S. government's official web portal to all federal, state and local government web resources and services.